| time (UTC) | temp C | wind direction | speed KPH | gust KPH | rain 1hr cm | rain 24hr cm | rain mn cm | humidity % | barometer mb |
| 20260905181541 | 34 | 203 | 3.2 | 8.0 | 0.00 | 0.00 | 0.00 | 33 | 1013.6 |
| 20260905180044 | 35 | 207 | 3.2 | 8.0 | 0.00 | 0.00 | 0.00 | 34 | 1013.9 |
| 20260905174542 | 35 | 225 | 1.6 | 8.0 | 0.00 | 0.00 | 0.00 | 34 | 1014.0 |
| 20260905173039 | 33 | 213 | 0.0 | 6.4 | 0.00 | 0.00 | 0.00 | 36 | 1014.1 |
| 20260905171540 | 33 | 246 | 1.6 | 6.4 | 0.00 | 0.00 | 0.00 | 37 | 1014.3 |
| 20260905170047 | 32 | 199 | 1.6 | 6.4 | 0.00 | 0.00 | 0.00 | 39 | 1014.4 |
| 20260905164541 | 32 | 0 | 1.6 | 6.4 | 0.00 | 0.00 | 0.00 | 39 | 1014.5 |
| 20260905163041 | 32 | 0 | 0.0 | 3.2 | 0.00 | 0.00 | 0.00 | 39 | 1014.6 |
| 20260905161541 | 32 | 174 | 0.0 | 3.2 | 0.00 | 0.00 | 0.00 | 39 | 1014.5 |
| 20260905160046 | 32 | 0 | 0.0 | 4.8 | 0.00 | 0.00 | 0.00 | 40 | 1014.5 |
| 20260905154542 | 31 | 0 | 0.0 | 0.0 | 0.00 | 0.00 | 0.00 | 44 | 1014.5 |
| 20260905153039 | 31 | 0 | 0.0 | 1.6 | 0.00 | 0.00 | 0.00 | 46 | 1014.5 |
| 20260905151549 | 30 | 0 | 0.0 | 1.6 | 0.00 | 0.00 | 0.00 | 47 | 1014.5 |
| 20260905150044 | 30 | 0 | 0.0 | 3.2 | 0.00 | 0.00 | 0.00 | 49 | 1014.4 |
| 20260905144547 | 29 | 96 | 0.0 | 4.8 | 0.00 | 0.00 | 0.00 | 53 | 1014.4 |
| 20260905143049 | 28 | 0 | 0.0 | 1.6 | 0.00 | 0.00 | 0.00 | 54 | 1014.4 |
| 20260905141542 | 27 | 0 | 0.0 | 1.6 | 0.00 | 0.00 | 0.00 | 57 | 1014.3 |
| 20260905140041 | 27 | 0 | 0.0 | 0.0 | 0.00 | 0.00 | 0.00 | 60 | 1014.4 |
| 20260905134539 | 26 | 0 | 0.0 | 0.0 | 0.00 | 0.00 | 0.00 | 61 | 1014.2 |
| 20260905133036 | 26 | 0 | 0.0 | 1.6 | 0.00 | 0.00 | 0.00 | 64 | 1014.2 |
| 20260905131548 | 25 | 0 | 0.0 | 1.6 | 0.00 | 0.00 | 0.00 | 67 | 1014.0 |
| 20260905130040 | 25 | 0 | 0.0 | 0.0 | 0.00 | 0.00 | 0.00 | 70 | 1013.9 |
| 20260905124543 | 23 | 0 | 0.0 | 0.0 | 0.00 | 0.00 | 0.00 | 69 | 1013.9 |
| 20260905123041 | 23 | 0 | 0.0 | 0.0 | 0.00 | 0.00 | 0.00 | 68 | 1013.7 |
| 20260905121539 | 23 | 0 | 0.0 | 0.0 | 0.00 | 0.00 | 0.00 | 67 | 1013.6 |
| 20260905120042 | 23 | 0 | 0.0 | 0.0 | 0.00 | 0.00 | 0.00 | 67 | 1013.5 |
| 20260905114545 | 23 | 0 | 0.0 | 0.0 | 0.00 | 0.00 | 0.00 | 67 | 1013.5 |
| 20260905113041 | 23 | 0 | 0.0 | 0.0 | 0.00 | 0.00 | 0.00 | 66 | 1013.4 |
| 20260905111548 | 24 | 0 | 0.0 | 0.0 | 0.00 | 0.00 | 0.00 | 66 | 1013.3 |
| 20260905110039 | 24 | 0 | 0.0 | 0.0 | 0.00 | 0.00 | 0.00 | 66 | 1013.4 |
| 20260905104538 | 24 | 0 | 0.0 | 0.0 | 0.00 | 0.00 | 0.00 | 65 | 1013.4 |
| 20260905103039 | 24 | 0 | 0.0 | 0.0 | 0.00 | 0.00 | 0.00 | 64 | 1013.5 |
| 20260905101547 | 25 | 0 | 0.0 | 0.0 | 0.00 | 0.00 | 0.00 | 64 | 1013.5 |
| 20260905100055 | 25 | 0 | 0.0 | 0.0 | 0.00 | 0.00 | 0.00 | 63 | 1013.5 |
| 20260905094547 | 25 | 0 | 0.0 | 0.0 | 0.00 | 0.00 | 0.00 | 62 | 1013.4 |
| 20260905093044 | 25 | 0 | 0.0 | 0.0 | 0.00 | 0.00 | 0.00 | 61 | 1013.1 |
| 20260905091540 | 26 | 0 | 0.0 | 0.0 | 0.00 | 0.00 | 0.00 | 60 | 1012.9 |
| 20260905090038 | 26 | 0 | 0.0 | 0.0 | 0.00 | 0.00 | 0.00 | 57 | 1013.0 |
| 20260905084542 | 26 | 0 | 0.0 | 0.0 | 0.00 | 0.00 | 0.00 | 56 | 1013.1 |
| 20260905083042 | 27 | 0 | 0.0 | 1.6 | 0.00 | 0.00 | 0.00 | 56 | 1012.9 |
| 20260905081542 | 27 | 0 | 0.0 | 0.0 | 0.00 | 0.00 | 0.00 | 54 | 1012.9 |
| 20260905080053 | 27 | 0 | 0.0 | 1.6 | 0.00 | 0.00 | 0.00 | 54 | 1012.8 |
| 20260905074538 | 27 | 75 | 0.0 | 4.8 | 0.00 | 0.00 | 0.00 | 54 | 1012.8 |
| 20260905073043 | 27 | 0 | 0.0 | 0.0 | 0.00 | 0.00 | 0.00 | 53 | 1013.0 |
| 20260905071542 | 28 | 0 | 0.0 | 1.6 | 0.00 | 0.00 | 0.00 | 51 | 1013.1 |
| 20260905070039 | 28 | 0 | 0.0 | 1.6 | 0.00 | 0.00 | 0.00 | 50 | 1013.1 |
| 20260905064546 | 28 | 88 | 0.0 | 3.2 | 0.00 | 0.00 | 0.00 | 50 | 1013.2 |
| 20260905063053 | 29 | 0 | 0.0 | 6.4 | 0.00 | 0.00 | 0.00 | 49 | 1013.2 |
| 20260905061549 | 29 | 107 | 0.0 | 4.8 | 0.00 | 0.00 | 0.00 | 48 | 1013.2 |
| 20260905060041 | 29 | 0 | 0.0 | 9.7 | 0.00 | 0.00 | 0.00 | 47 | 1013.1 |
| 20260905054540 | 30 | 41 | 1.6 | 9.7 | 0.00 | 0.00 | 0.00 | 46 | 1013.1 |
| 20260905053045 | 30 | 94 | 1.6 | 8.0 | 0.00 | 0.00 | 0.00 | 45 | 1012.8 |
| 20260905051545 | 30 | 324 | 0.0 | 8.0 | 0.00 | 0.00 | 0.00 | 45 | 1012.8 |
| 20260905050046 | 30 | 70 | 1.6 | 4.8 | 0.00 | 0.00 | 0.00 | 44 | 1012.8 |
| 20260905044544 | 30 | 39 | 0.0 | 6.4 | 0.00 | 0.00 | 0.00 | 44 | 1012.8 |
| 20260905043041 | 31 | 24 | 0.0 | 8.0 | 0.00 | 0.00 | 0.00 | 43 | 1012.7 |
| 20260905041538 | 31 | 11 | 1.6 | 11.3 | 0.00 | 0.00 | 0.00 | 42 | 1012.7 |
| 20260905040049 | 31 | 34 | 3.2 | 9.7 | 0.00 | 0.00 | 0.00 | 41 | 1012.8 |
| 20260905034545 | 31 | 46 | 1.6 | 8.0 | 0.00 | 0.00 | 0.00 | 40 | 1012.8 |
| 20260905033041 | 31 | 41 | 0.0 | 4.8 | 0.00 | 0.00 | 0.00 | 38 | 1012.8 |
| 20260905031538 | 31 | 245 | 1.6 | 6.4 | 0.00 | 0.00 | 0.00 | 37 | 1012.6 |
| 20260905030057 | 31 | 18 | 0.0 | 3.2 | 0.00 | 0.00 | 0.00 | 37 | 1012.7 |
| 20260905024541 | 31 | 115 | 0.0 | 3.2 | 0.00 | 0.00 | 0.00 | 39 | 1012.4 |
| 20260905023047 | 31 | 0 | 0.0 | 0.0 | 0.00 | 0.00 | 0.00 | 38 | 1012.3 |
| 20260905021541 | 32 | 0 | 0.0 | 0.0 | 0.00 | 0.00 | 0.00 | 37 | 1011.9 |
| 20260905020057 | 32 | 0 | 0.0 | 1.6 | 0.00 | 0.00 | 0.00 | 36 | 1011.7 |
| 20260905014544 | 33 | 0 | 1.6 | 8.0 | 0.00 | 0.00 | 0.00 | 35 | 1011.4 |
| 20260905013042 | 33 | 235 | 0.0 | 4.8 | 0.00 | 0.00 | 0.00 | 35 | 1011.2 |
| 20260905011541 | 33 | 0 | 1.6 | 11.3 | 0.00 | 0.00 | 0.00 | 35 | 1011.2 |
| 20260905010048 | 33 | 233 | 0.0 | 3.2 | 0.00 | 0.00 | 0.00 | 35 | 1010.9 |
| 20260905004603 | 34 | 244 | 1.6 | 6.4 | 0.00 | 0.00 | 0.00 | 34 | 1010.6 |
| 20260905003038 | 35 | 271 | 1.6 | 6.4 | 0.00 | 0.00 | 0.00 | 31 | 1010.5 |
| 20260905001544 | 35 | 28 | 0.0 | 14.5 | 0.00 | 0.00 | 0.00 | 31 | 1010.4 |
| 20260905000043 | 35 | 37 | 0.0 | 6.4 | 0.00 | 0.00 | 0.00 | 30 | 1010.2 |
| 20260904234542 | 35 | 23 | 1.6 | 8.0 | 0.00 | 0.00 | 0.00 | 28 | 1010.3 |
| 20260904233051 | 36 | 37 | 3.2 | 9.7 | 0.00 | 0.00 | 0.00 | 27 | 1010.3 |
| 20260904231544 | 36 | 30 | 1.6 | 8.0 | 0.00 | 0.00 | 0.00 | 27 | 1010.4 |
| 20260904230043 | 36 | 221 | 0.0 | 8.0 | 0.00 | 0.00 | 0.00 | 27 | 1010.3 |
| 20260904224549 | 36 | 287 | 3.2 | 9.7 | 0.00 | 0.00 | 0.00 | 27 | 1010.6 |
| 20260904223040 | 36 | 46 | 0.0 | 8.0 | 0.00 | 0.00 | 0.00 | 28 | 1010.5 |
| 20260904221540 | 36 | 227 | 3.2 | 8.0 | 0.00 | 0.00 | 0.00 | 27 | 1010.7 |
| 20260904220044 | 37 | 49 | 0.0 | 9.7 | 0.00 | 0.00 | 0.00 | 27 | 1010.6 |
| 20260904214541 | 37 | 246 | 0.0 | 4.8 | 0.00 | 0.00 | 0.00 | 27 | 1010.8 |
| 20260904213041 | 37 | 299 | 3.2 | 9.7 | 0.00 | 0.00 | 0.00 | 26 | 1011.0 |
| 20260904211545 | 37 | 59 | 1.6 | 9.7 | 0.00 | 0.00 | 0.00 | 26 | 1011.1 |
| 20260904210049 | 37 | 293 | 4.8 | 11.3 | 0.00 | 0.00 | 0.00 | 26 | 1011.4 |
| 20260904204545 | 37 | 26 | 1.6 | 9.7 | 0.00 | 0.00 | 0.00 | 26 | 1011.5 |
| 20260904203043 | 37 | 14 | 3.2 | 17.7 | 0.00 | 0.00 | 0.00 | 27 | 1011.7 |
| 20260904201539 | 37 | 27 | 3.2 | 16.1 | 0.00 | 0.00 | 0.00 | 28 | 1012.0 |
| 20260904200041 | 36 | 34 | 3.2 | 11.3 | 0.00 | 0.00 | 0.00 | 29 | 1012.3 |
| 20260904194543 | 36 | 60 | 3.2 | 19.3 | 0.00 | 0.00 | 0.00 | 30 | 1012.4 |
| 20260904193122 | 36 | 50 | 3.2 | 9.7 | 0.00 | 0.00 | 0.00 | 31 | 1012.5 |
| 20260904191538 | 36 | 11 | 1.6 | 11.3 | 0.00 | 0.00 | 0.00 | 32 | 1012.7 |
| 20260904190040 | 36 | 20 | 3.2 | 16.1 | 0.00 | 0.00 | 0.00 | 31 | 1012.9 |
| 20260904184542 | 36 | 88 | 1.6 | 4.8 | 0.00 | 0.00 | 0.00 | 32 | 1013.1 |
| 20260904183047 | 35 | 284 | 4.8 | 17.7 | 0.00 | 0.00 | 0.00 | 33 | 1013.4 |